Time,TemperatureF,DewpointF,PressureIn,WindDirection,WindDirectionDegrees,WindSpeedMPH,WindSpeedGustMPH,Humidity,HourlyPrecipIn,Conditions,Clouds,dailyrainin,SolarRadiationWatts/m^2,SoftwareType,DateUTC
2013-04-19 00:01:00,46.5,46.0,30.18,SE,131,0.0,2.0,98,0.06,,,0.01,0,WeatherCatV1.14B232,2013-04-19 07:01:00,
2013-04-19 00:06:00,46.5,46.0,30.18,SE,131,0.0,3.0,98,0.06,,,0.01,0,WeatherCatV1.14B232,2013-04-19 07:06:00,
2013-04-19 00:11:00,46.5,46.0,30.18,SE,131,0.0,2.0,98,0.05,,,0.01,0,WeatherCatV1.14B232,2013-04-19 07:11:00,
2013-04-19 00:16:00,46.5,46.0,30.17,SE,131,0.0,1.0,98,0.04,,,0.01,0,WeatherCatV1.14B232,2013-04-19 07:16:00,
2013-04-19 00:21:00,46.5,46.0,30.17,SE,127,0.0,1.0,98,0.00,,,0.01,0,WeatherCatV1.14B232,2013-04-19 07:21:00,
2013-04-19 00:26:00,46.5,46.0,30.17,SE,127,0.0,0.0,98,0.00,,,0.02,0,WeatherCatV1.14B232,2013-04-19 07:26:00,
2013-04-19 00:31:00,46.5,46.0,30.17,SE,127,0.0,1.0,98,0.06,,,0.03,0,WeatherCatV1.14B232,2013-04-19 07:31:00,
2013-04-19 00:36:00,46.5,46.0,30.17,SE,127,0.0,0.0,98,0.06,,,0.03,0,WeatherCatV1.14B232,2013-04-19 07:36:00,
2013-04-19 00:41:00,46.5,46.0,30.17,SE,127,0.0,0.0,98,0.07,,,0.04,0,WeatherCatV1.14B232,2013-04-19 07:41:00,
2013-04-19 00:46:00,46.5,46.0,30.16,SE,127,0.0,2.0,98,0.11,,,0.05,0,WeatherCatV1.14B232,2013-04-19 07:46:00,
2013-04-19 00:51:00,46.7,46.2,30.16,SE,127,0.0,0.0,98,0.09,,,0.05,0,WeatherCatV1.14B232,2013-04-19 07:51:00,
2013-04-19 00:56:00,46.7,46.2,30.16,SE,127,0.0,0.0,98,0.05,,,0.05,0,WeatherCatV1.14B232,2013-04-19 07:56:00,
2013-04-19 01:01:00,46.7,46.2,30.16,SE,127,0.0,0.0,98,0.05,,,0.06,0,WeatherCatV1.14B232,2013-04-19 08:01:00,
2013-04-19 01:06:00,46.7,46.2,30.16,SE,127,1.0,1.0,98,0.08,,,0.07,0,WeatherCatV1.14B232,2013-04-19 08:06:00,
2013-04-19 01:11:00,46.7,46.2,30.16,SE,127,0.0,0.0,98,0.08,,,0.07,0,WeatherCatV1.14B232,2013-04-19 08:11:00,
2013-04-19 01:16:00,46.7,46.2,30.15,SE,127,0.0,0.0,98,0.05,,,0.07,0,WeatherCatV1.14B232,2013-04-19 08:16:00,
2013-04-19 01:21:00,46.7,46.2,30.15,SE,127,0.0,0.0,98,0.05,,,0.08,0,WeatherCatV1.14B232,2013-04-19 08:21:00,
2013-04-19 01:26:00,46.7,46.2,30.15,ESE,115,1.0,3.0,98,0.08,,,0.09,0,WeatherCatV1.14B232,2013-04-19 08:26:00,
2013-04-19 01:31:00,46.7,46.2,30.15,SE,128,2.0,3.0,98,0.10,,,0.10,0,WeatherCatV1.14B232,2013-04-19 08:31:00,
2013-04-19 01:36:00,46.7,46.2,30.15,SE,127,0.0,0.0,98,0.14,,,0.11,0,WeatherCatV1.14B232,2013-04-19 08:36:00,
2013-04-19 01:41:00,46.7,46.2,30.15,SE,125,1.0,2.0,98,0.09,,,0.12,0,WeatherCatV1.14B232,2013-04-19 08:41:00,
2013-04-19 01:46:00,46.7,46.2,30.14,SE,125,0.0,2.0,98,0.09,,,0.12,0,WeatherCatV1.14B232,2013-04-19 08:46:00,
2013-04-19 01:51:00,46.7,46.2,30.14,SE,125,0.0,1.0,98,0.08,,,0.13,0,WeatherCatV1.14B232,2013-04-19 08:51:00,
2013-04-19 01:56:00,46.7,46.2,30.14,SE,125,0.0,0.0,98,0.08,,,0.13,0,WeatherCatV1.14B232,2013-04-19 08:56:00,
2013-04-19 02:01:00,46.7,46.2,30.14,SE,125,1.0,1.0,98,0.05,,,0.13,0,WeatherCatV1.14B232,2013-04-19 09:01:00,
2013-04-19 02:06:00,46.8,46.3,30.14,SE,124,1.0,2.0,98,0.04,,,0.14,0,WeatherCatV1.14B232,2013-04-19 09:06:00,
2013-04-19 02:11:00,46.8,46.3,30.14,SE,124,0.0,1.0,98,0.09,,,0.14,0,WeatherCatV1.14B232,2013-04-19 09:11:00,
2013-04-19 02:16:00,46.8,46.3,30.13,SE,124,1.0,1.0,98,0.09,,,0.15,0,WeatherCatV1.14B232,2013-04-19 09:16:00,
2013-04-19 02:21:00,46.8,46.3,30.13,SE,124,0.0,1.0,98,0.06,,,0.16,0,WeatherCatV1.14B232,2013-04-19 09:21:00,
2013-04-19 02:26:00,46.8,46.3,30.13,SE,124,0.0,0.0,98,0.06,,,0.16,0,WeatherCatV1.14B232,2013-04-19 09:26:00,
2013-04-19 02:31:00,46.8,46.3,30.12,SE,124,0.0,0.0,98,0.06,,,0.16,0,WeatherCatV1.14B232,2013-04-19 09:31:00,
2013-04-19 02:36:00,46.8,46.3,30.12,ESE,105,2.0,4.0,98,0.05,,,0.17,0,WeatherCatV1.14B232,2013-04-19 09:36:00,
2013-04-19 02:41:00,47.0,46.5,30.12,ESE,109,2.0,3.0,98,0.05,,,0.17,0,WeatherCatV1.14B232,2013-04-19 09:41:00,
2013-04-19 02:46:00,47.0,46.5,30.11,SE,132,1.0,1.0,98,0.05,,,0.18,0,WeatherCatV1.14B232,2013-04-19 09:46:00,
2013-04-19 02:51:00,47.0,46.5,30.11,SE,132,2.0,2.0,98,0.05,,,0.18,0,WeatherCatV1.14B232,2013-04-19 09:51:00,
2013-04-19 02:56:00,47.0,46.5,30.11,ESE,122,0.0,0.0,98,0.06,,,0.19,0,WeatherCatV1.14B232,2013-04-19 09:56:00,
2013-04-19 03:01:00,47.0,46.5,30.11,ESE,122,0.0,0.0,98,0.06,,,0.19,0,WeatherCatV1.14B232,2013-04-19 10:01:00,
2013-04-19 03:06:00,47.0,46.5,30.11,ESE,122,0.0,0.0,98,0.07,,,0.20,0,WeatherCatV1.14B232,2013-04-19 10:06:00,
2013-04-19 03:11:00,47.0,46.5,30.11,ESE,122,0.0,0.0,98,0.07,,,0.20,0,WeatherCatV1.14B232,2013-04-19 10:11:00,
2013-04-19 03:16:00,47.0,46.5,30.10,ESE,122,0.0,1.0,98,0.07,,,0.21,0,WeatherCatV1.14B232,2013-04-19 10:16:00,
2013-04-19 03:21:00,47.0,46.5,30.10,ESE,122,0.0,1.0,98,0.07,,,0.21,0,WeatherCatV1.14B232,2013-04-19 10:21:00,
2013-04-19 03:26:00,47.1,46.6,30.10,ESE,122,0.0,1.0,98,0.04,,,0.21,0,WeatherCatV1.14B232,2013-04-19 10:26:00,
2013-04-19 03:31:00,47.1,46.6,30.09,ESE,122,0.0,2.0,98,0.00,,,0.21,0,WeatherCatV1.14B232,2013-04-19 10:31:00,
2013-04-19 03:36:00,47.1,46.6,30.09,ESE,122,1.0,1.0,98,0.00,,,0.21,0,WeatherCatV1.14B232,2013-04-19 10:36:00,
2013-04-19 03:41:00,47.1,46.6,30.09,ESE,122,0.0,1.0,98,0.00,,,0.21,0,WeatherCatV1.14B232,2013-04-19 10:41:00,
2013-04-19 03:46:00,47.1,46.6,30.09,SSE,157,0.0,0.0,98,0.00,,,0.21,0,WeatherCatV1.14B232,2013-04-19 10:46:00,
2013-04-19 03:51:00,47.3,46.8,30.09,ESE,117,0.0,0.0,98,0.13,,,0.23,0,WeatherCatV1.14B232,2013-04-19 10:51:00,
2013-04-19 03:56:00,47.3,46.8,30.09,ESE,117,0.0,0.0,98,0.11,,,0.23,0,WeatherCatV1.14B232,2013-04-19 10:56:00,
2013-04-19 04:01:00,47.3,46.8,30.08,ESE,105,0.0,3.0,98,0.10,,,0.24,0,WeatherCatV1.14B232,2013-04-19 11:01:00,
2013-04-19 04:06:00,47.3,46.8,30.08,ESE,105,0.0,0.0,98,0.12,,,0.25,0,WeatherCatV1.14B232,2013-04-19 11:06:00,
2013-04-19 04:11:00,47.3,46.8,30.08,SE,126,0.0,1.0,98,0.15,,,0.26,0,WeatherCatV1.14B232,2013-04-19 11:11:00,
2013-04-19 04:16:00,47.3,46.8,30.08,SE,126,0.0,1.0,98,0.11,,,0.27,0,WeatherCatV1.14B232,2013-04-19 11:16:00,
2013-04-19 04:21:00,47.4,46.9,30.08,SE,135,2.0,3.0,98,0.07,,,0.28,0,WeatherCatV1.14B232,2013-04-19 11:21:00,
2013-04-19 04:26:00,47.4,46.9,30.08,SE,135,1.0,1.0,98,0.07,,,0.28,0,WeatherCatV1.14B232,2013-04-19 11:26:00,
2013-04-19 04:31:00,47.4,46.9,30.08,SE,135,0.0,0.0,98,0.09,,,0.29,0,WeatherCatV1.14B232,2013-04-19 11:31:00,
2013-04-19 04:36:00,47.4,46.9,30.08,ESE,113,4.0,4.0,98,0.09,,,0.30,0,WeatherCatV1.14B232,2013-04-19 11:36:00,
2013-04-19 04:41:00,47.4,46.9,30.08,SSE,157,0.0,2.0,98,0.09,,,0.31,0,WeatherCatV1.14B232,2013-04-19 11:41:00,
2013-04-19 04:46:00,47.4,46.9,30.07,SSE,154,0.0,2.0,98,0.09,,,0.31,0,WeatherCatV1.14B232,2013-04-19 11:46:00,
2013-04-19 04:51:00,47.6,47.1,30.07,East,90,1.0,2.0,98,0.06,,,0.31,0,WeatherCatV1.14B232,2013-04-19 11:51:00,
2013-04-19 04:56:00,47.6,47.1,30.07,East,92,1.0,3.0,98,0.06,,,0.32,0,WeatherCatV1.14B232,2013-04-19 11:56:00,
2013-04-19 05:01:00,47.6,47.1,30.06,East,100,0.0,0.0,98,0.06,,,0.33,0,WeatherCatV1.14B232,2013-04-19 12:01:00,
2013-04-19 05:06:00,47.6,47.1,30.06,East,100,0.0,2.0,98,0.06,,,0.33,0,WeatherCatV1.14B232,2013-04-19 12:06:00,
2013-04-19 05:11:00,47.6,47.1,30.06,East,92,0.0,2.0,98,0.06,,,0.33,0,WeatherCatV1.14B232,2013-04-19 12:11:00,
2013-04-19 05:16:00,47.7,47.2,30.06,East,92,0.0,1.0,98,0.04,,,0.33,0,WeatherCatV1.14B232,2013-04-19 12:16:00,
2013-04-19 05:21:00,47.7,47.2,30.06,ESE,113,1.0,4.0,98,0.00,,,0.33,0,WeatherCatV1.14B232,2013-04-19 12:21:00,
2013-04-19 05:26:00,47.7,47.2,30.06,ESE,113,1.0,2.0,98,0.00,,,0.34,0,WeatherCatV1.14B232,2013-04-19 12:26:00,
2013-04-19 05:31:00,47.7,47.2,30.06,ESE,116,0.0,0.0,98,0.00,,,0.34,0,WeatherCatV1.14B232,2013-04-19 12:31:00,
2013-04-19 05:36:00,47.7,47.2,30.06,ESE,102,0.0,2.0,98,0.05,,,0.35,0,WeatherCatV1.14B232,2013-04-19 12:36:00,
2013-04-19 05:41:00,47.7,47.2,30.06,ESE,102,0.0,0.0,98,0.05,,,0.35,0,WeatherCatV1.14B232,2013-04-19 12:41:00,
2013-04-19 05:46:00,47.7,47.2,30.05,ESE,102,0.0,0.0,98,0.05,,,0.35,0,WeatherCatV1.14B232,2013-04-19 12:46:00,
2013-04-19 05:51:00,47.7,47.2,30.05,ESE,102,0.0,2.0,98,0.04,,,0.36,0,WeatherCatV1.14B232,2013-04-19 12:51:00,
2013-04-19 05:56:00,47.7,47.2,30.05,ESE,102,0.0,0.0,98,0.04,,,0.36,0,WeatherCatV1.14B232,2013-04-19 12:56:00,
2013-04-19 06:01:00,47.9,47.4,30.05,ESE,102,0.0,1.0,98,0.04,,,0.36,0,WeatherCatV1.14B232,2013-04-19 13:01:00,
2013-04-19 06:06:00,47.9,47.4,30.05,ESE,119,0.0,0.0,98,0.04,,,0.36,0,WeatherCatV1.14B232,2013-04-19 13:06:00,
2013-04-19 06:11:00,47.9,47.4,30.05,ESE,119,0.0,0.0,98,0.04,,,0.37,0,WeatherCatV1.14B232,2013-04-19 13:11:00,
2013-04-19 06:16:00,47.9,47.4,30.05,ESE,119,0.0,2.0,98,0.04,,,0.37,0,WeatherCatV1.14B232,2013-04-19 13:16:00,
2013-04-19 06:21:00,47.9,47.4,30.05,ESE,116,0.0,2.0,98,0.04,,,0.37,0,WeatherCatV1.14B232,2013-04-19 13:21:00,
2013-04-19 06:26:00,47.9,47.4,30.05,ESE,112,0.0,2.0,98,0.00,,,0.37,0,WeatherCatV1.14B232,2013-04-19 13:26:00,
2013-04-19 06:31:00,47.9,47.4,30.05,ESE,112,0.0,3.0,98,0.00,,,0.38,0,WeatherCatV1.14B232,2013-04-19 13:31:00,
2013-04-19 06:36:00,47.9,47.4,30.05,SE,132,0.0,2.0,98,0.00,,,0.38,5,WeatherCatV1.14B232,2013-04-19 13:36:00,
2013-04-19 06:41:00,47.9,47.4,30.05,East,96,2.0,3.0,98,0.00,,,0.38,7,WeatherCatV1.14B232,2013-04-19 13:41:00,
2013-04-19 06:46:00,47.9,47.4,30.05,ESE,109,1.0,3.0,98,0.00,,,0.38,9,WeatherCatV1.14B232,2013-04-19 13:46:00,
2013-04-19 06:51:00,47.9,47.4,30.05,ESE,108,0.0,3.0,98,0.00,,,0.39,11,WeatherCatV1.14B232,2013-04-19 13:51:00,
2013-04-19 06:56:00,47.9,47.4,30.05,ESE,108,0.0,0.0,98,0.00,,,0.39,11,WeatherCatV1.14B232,2013-04-19 13:56:00,
2013-04-19 07:01:00,47.9,47.4,30.04,ESE,109,0.0,3.0,98,0.00,,,0.39,12,WeatherCatV1.14B232,2013-04-19 14:01:00,
2013-04-19 07:06:00,47.9,47.4,30.04,SE,136,0.0,2.0,98,0.00,,,0.39,12,WeatherCatV1.14B232,2013-04-19 14:06:00,
2013-04-19 07:11:00,48.0,47.5,30.04,ESE,123,0.0,1.0,98,0.00,,,0.39,12,WeatherCatV1.14B232,2013-04-19 14:11:00,
2013-04-19 07:16:00,48.0,47.5,30.04,ESE,115,1.0,3.0,98,0.00,,,0.40,12,WeatherCatV1.14B232,2013-04-19 14:16:00,
2013-04-19 07:21:00,48.0,47.5,30.04,ESE,115,1.0,1.0,98,0.00,,,0.40,16,WeatherCatV1.14B232,2013-04-19 14:21:00,
2013-04-19 07:26:00,48.0,47.5,30.04,ESE,123,0.0,3.0,98,0.06,,,0.41,18,WeatherCatV1.14B232,2013-04-19 14:26:00,
2013-04-19 07:31:00,48.0,47.5,30.04,East,95,0.0,3.0,98,0.06,,,0.41,19,WeatherCatV1.14B232,2013-04-19 14:31:00,
2013-04-19 07:36:00,48.0,47.5,30.04,ESE,112,0.0,2.0,98,0.04,,,0.41,19,WeatherCatV1.14B232,2013-04-19 14:36:00,
2013-04-19 07:41:00,48.0,47.5,30.04,ESE,112,0.0,0.0,98,0.00,,,0.41,19,WeatherCatV1.14B232,2013-04-19 14:41:00,
2013-04-19 07:46:00,48.0,47.5,30.04,ESE,111,3.0,3.0,98,0.00,,,0.42,19,WeatherCatV1.14B232,2013-04-19 14:46:00,
2013-04-19 07:51:00,48.0,47.5,30.04,SE,126,0.0,2.0,98,0.00,,,0.42,19,WeatherCatV1.14B232,2013-04-19 14:51:00,
2013-04-19 07:56:00,48.2,47.7,30.04,SE,126,0.0,2.0,98,0.00,,,0.42,21,WeatherCatV1.14B232,2013-04-19 14:56:00,
2013-04-19 08:01:00,48.2,47.7,30.04,SE,124,0.0,0.0,98,0.04,,,0.42,16,WeatherCatV1.14B232,2013-04-19 15:01:00,
2013-04-19 08:06:00,48.2,47.7,30.04,ESE,105,0.0,1.0,98,0.04,,,0.43,23,WeatherCatV1.14B232,2013-04-19 15:06:00,
2013-04-19 08:11:00,48.2,47.7,30.04,ESE,120,0.0,3.0,98,0.04,,,0.43,32,WeatherCatV1.14B232,2013-04-19 15:11:00,
2013-04-19 08:16:00,48.2,47.7,30.03,SE,146,0.0,0.0,98,0.04,,,0.43,39,WeatherCatV1.14B232,2013-04-19 15:16:00,
2013-04-19 08:21:00,48.2,47.7,30.03,ESE,115,0.0,0.0,98,0.00,,,0.44,32,WeatherCatV1.14B232,2013-04-19 15:21:00,
2013-04-19 08:26:00,48.3,47.8,30.03,ESE,115,0.0,2.0,98,0.00,,,0.44,30,WeatherCatV1.14B232,2013-04-19 15:26:00,
2013-04-19 08:31:00,48.3,47.8,30.03,ESE,115,0.0,1.0,98,0.05,,,0.44,30,WeatherCatV1.14B232,2013-04-19 15:31:00,
2013-04-19 08:36:00,48.3,47.8,30.03,ESE,121,0.0,2.0,98,0.05,,,0.45,30,WeatherCatV1.14B232,2013-04-19 15:36:00,
2013-04-19 08:41:00,48.3,47.8,30.03,ESE,121,0.0,0.0,98,0.05,,,0.45,33,WeatherCatV1.14B232,2013-04-19 15:41:00,
2013-04-19 08:46:00,48.5,48.0,30.03,ESE,121,0.0,0.0,98,0.04,,,0.45,33,WeatherCatV1.14B232,2013-04-19 15:46:00,
2013-04-19 08:51:00,48.5,48.0,30.03,ESE,121,0.0,0.0,98,0.00,,,0.45,39,WeatherCatV1.14B232,2013-04-19 15:51:00,
2013-04-19 08:56:00,48.5,48.0,30.03,ESE,121,0.0,0.0,98,0.00,,,0.46,42,WeatherCatV1.14B232,2013-04-19 15:56:00,
2013-04-19 09:01:00,48.6,48.1,30.03,ESE,121,0.0,0.0,98,0.00,,,0.46,47,WeatherCatV1.14B232,2013-04-19 16:01:00,
2013-04-19 09:06:00,48.6,48.1,30.03,ESE,121,0.0,2.0,98,0.00,,,0.46,44,WeatherCatV1.14B232,2013-04-19 16:06:00,
2013-04-19 09:11:00,48.6,48.1,30.03,ESE,121,0.0,1.0,98,0.00,,,0.46,40,WeatherCatV1.14B232,2013-04-19 16:11:00,
2013-04-19 09:16:00,48.8,48.3,30.03,ESE,121,0.0,0.0,98,0.00,,,0.46,42,WeatherCatV1.14B232,2013-04-19 16:16:00,
2013-04-19 09:21:00,48.8,48.3,30.03,ESE,121,0.0,0.0,98,0.00,,,0.47,42,WeatherCatV1.14B232,2013-04-19 16:21:00,
2013-04-19 09:26:00,48.8,48.3,30.03,ESE,121,0.0,0.0,98,0.00,,,0.47,44,WeatherCatV1.14B232,2013-04-19 16:26:00,
2013-04-19 09:31:00,48.9,48.4,30.03,ESE,120,2.0,2.0,98,0.00,,,0.47,51,WeatherCatV1.14B232,2013-04-19 16:31:00,
2013-04-19 09:36:00,48.9,48.4,30.03,ESE,120,0.0,0.0,98,0.00,,,0.47,51,WeatherCatV1.14B232,2013-04-19 16:36:00,
2013-04-19 09:41:00,48.9,48.4,30.03,ESE,120,0.0,0.0,98,0.00,,,0.47,58,WeatherCatV1.14B232,2013-04-19 16:41:00,
2013-04-19 09:46:00,49.1,48.6,30.03,ESE,120,2.0,3.0,98,0.00,,,0.48,56,WeatherCatV1.14B232,2013-04-19 16:46:00,
2013-04-19 09:51:00,49.1,48.6,30.03,ESE,120,0.0,0.0,98,0.00,,,0.48,60,WeatherCatV1.14B232,2013-04-19 16:51:00,
2013-04-19 09:56:00,49.1,48.6,30.03,ESE,120,0.0,0.0,98,0.07,,,0.49,69,WeatherCatV1.14B232,2013-04-19 16:56:00,
2013-04-19 10:01:00,49.2,48.7,30.03,ESE,119,0.0,0.0,98,0.07,,,0.49,69,WeatherCatV1.14B232,2013-04-19 17:01:00,
2013-04-19 10:06:00,49.2,48.7,30.03,ESE,119,0.0,1.0,98,0.06,,,0.50,77,WeatherCatV1.14B232,2013-04-19 17:06:00,
2013-04-19 10:11:00,49.2,48.7,30.03,SE,126,0.0,1.0,98,0.06,,,0.50,84,WeatherCatV1.14B232,2013-04-19 17:11:00,
2013-04-19 10:16:00,49.2,48.7,30.03,ESE,109,0.0,3.0,98,0.06,,,0.51,93,WeatherCatV1.14B232,2013-04-19 17:16:00,
2013-04-19 10:21:00,49.2,48.7,30.03,SE,142,0.0,2.0,98,0.06,,,0.51,114,WeatherCatV1.14B232,2013-04-19 17:21:00,
2013-04-19 10:26:00,49.4,48.9,30.03,SE,131,1.0,2.0,98,0.04,,,0.51,109,WeatherCatV1.14B232,2013-04-19 17:26:00,
2013-04-19 10:31:00,49.4,48.9,30.03,East,96,0.0,1.0,98,0.04,,,0.52,125,WeatherCatV1.14B232,2013-04-19 17:31:00,
2013-04-19 10:36:00,49.5,49.0,30.03,East,93,2.0,4.0,98,0.04,,,0.52,146,WeatherCatV1.14B232,2013-04-19 17:36:00,
2013-04-19 10:41:00,49.5,49.0,30.03,East,93,0.0,0.0,98,0.06,,,0.53,137,WeatherCatV1.14B232,2013-04-19 17:41:00,
2013-04-19 10:46:00,49.6,49.1,30.03,SE,124,0.0,2.0,98,0.06,,,0.53,127,WeatherCatV1.14B232,2013-04-19 17:46:00,
2013-04-19 10:51:00,49.8,49.3,30.03,SE,124,0.0,0.0,98,0.04,,,0.54,132,WeatherCatV1.14B232,2013-04-19 17:51:00,
2013-04-19 10:56:00,50.1,49.6,30.03,SE,124,0.0,0.0,98,0.04,,,0.54,151,WeatherCatV1.14B232,2013-04-19 17:56:00,
2013-04-19 11:01:00,50.2,49.7,30.04,SE,124,1.0,1.0,98,0.07,,,0.55,146,WeatherCatV1.14B232,2013-04-19 18:01:00,
2013-04-19 11:06:00,50.2,49.7,30.04,ESE,109,0.0,3.0,98,0.07,,,0.55,134,WeatherCatV1.14B232,2013-04-19 18:06:00,
2013-04-19 11:11:00,50.1,49.6,30.04,East,88,3.0,4.0,98,0.05,,,0.55,130,WeatherCatV1.14B232,2013-04-19 18:11:00,
2013-04-19 11:16:00,50.1,49.6,30.04,South,177,0.0,0.0,98,0.04,,,0.56,116,WeatherCatV1.14B232,2013-04-19 18:16:00,
2013-04-19 11:21:00,50.1,49.6,30.04,ESE,111,1.0,1.0,98,0.04,,,0.56,114,WeatherCatV1.14B232,2013-04-19 18:21:00,
2013-04-19 11:26:00,50.1,49.6,30.04,ESE,121,0.0,0.0,98,0.07,,,0.57,118,WeatherCatV1.14B232,2013-04-19 18:26:00,
2013-04-19 11:31:00,50.2,49.7,30.04,ESE,121,0.0,2.0,98,0.07,,,0.57,93,WeatherCatV1.14B232,2013-04-19 18:31:00,
2013-04-19 11:36:00,50.4,49.9,30.04,ESE,121,0.0,0.0,98,0.05,,,0.58,100,WeatherCatV1.14B232,2013-04-19 18:36:00,
2013-04-19 11:41:00,50.5,50.0,30.04,ESE,121,0.0,0.0,98,0.05,,,0.58,111,WeatherCatV1.14B232,2013-04-19 18:41:00,
2013-04-19 11:46:00,50.5,50.0,30.04,ESE,121,0.0,1.0,98,0.08,,,0.59,130,WeatherCatV1.14B232,2013-04-19 18:46:00,
2013-04-19 11:51:00,50.5,50.0,30.04,ESE,121,0.0,2.0,98,0.06,,,0.59,134,WeatherCatV1.14B232,2013-04-19 18:51:00,
2013-04-19 11:56:00,50.5,50.0,30.04,ESE,105,0.0,2.0,98,0.04,,,0.59,98,WeatherCatV1.14B232,2013-04-19 18:56:00,
2013-04-19 12:01:00,50.5,50.0,30.05,ESE,105,0.0,0.0,98,0.00,,,0.60,141,WeatherCatV1.14B232,2013-04-19 19:01:00,
2013-04-19 12:06:00,50.7,50.2,30.05,ESE,102,0.0,1.0,98,0.00,,,0.60,151,WeatherCatV1.14B232,2013-04-19 19:06:00,
2013-04-19 12:11:00,51.0,50.5,30.05,ESE,102,0.0,0.0,98,0.00,,,0.60,176,WeatherCatV1.14B232,2013-04-19 19:11:00,
2013-04-19 12:16:00,51.0,50.5,30.05,East,80,0.0,3.0,98,0.00,,,0.60,179,WeatherCatV1.14B232,2013-04-19 19:16:00,
2013-04-19 12:21:00,51.1,50.6,30.05,SE,140,0.0,2.0,98,0.00,,,0.61,186,WeatherCatV1.14B232,2013-04-19 19:21:00,
2013-04-19 12:26:00,51.1,50.6,30.05,SE,140,0.0,2.0,98,0.00,,,0.61,181,WeatherCatV1.14B232,2013-04-19 19:26:00,
2013-04-19 12:31:00,51.3,50.8,30.05,SE,137,0.0,0.0,98,0.00,,,0.61,179,WeatherCatV1.14B232,2013-04-19 19:31:00,
2013-04-19 12:36:00,51.4,50.9,30.05,SE,137,0.0,0.0,98,0.00,,,0.61,163,WeatherCatV1.14B232,2013-04-19 19:36:00,
2013-04-19 12:41:00,51.6,51.1,30.05,SE,139,0.0,2.0,98,0.00,,,0.61,174,WeatherCatV1.14B232,2013-04-19 19:41:00,
2013-04-19 12:46:00,51.6,51.3,30.05,SE,139,0.0,0.0,99,0.00,,,0.62,156,WeatherCatV1.14B232,2013-04-19 19:46:00,
2013-04-19 12:51:00,51.7,51.4,30.05,SE,139,0.0,0.0,99,0.00,,,0.62,214,WeatherCatV1.14B232,2013-04-19 19:51:00,
2013-04-19 12:56:00,52.0,51.5,30.05,SW,214,0.0,0.0,98,0.00,,,0.62,137,WeatherCatV1.14B232,2013-04-19 19:56:00,
2013-04-19 13:01:00,52.0,51.5,30.05,WSW,245,0.0,1.0,98,0.00,,,0.62,62,WeatherCatV1.14B232,2013-04-19 20:01:00,
2013-04-19 13:06:00,51.7,51.2,30.05,WSW,246,0.0,0.0,98,0.00,,,0.62,74,WeatherCatV1.14B232,2013-04-19 20:06:00,
2013-04-19 13:11:00,51.6,51.1,30.05,WSW,246,0.0,0.0,98,0.15,,,0.64,95,WeatherCatV1.14B232,2013-04-19 20:11:00,
2013-04-19 13:16:00,51.4,50.9,30.06,WSW,246,1.0,1.0,98,0.10,,,0.64,118,WeatherCatV1.14B232,2013-04-19 20:16:00,
2013-04-19 13:21:00,51.1,50.6,30.06,West,279,0.0,1.0,98,0.05,,,0.64,111,WeatherCatV1.14B232,2013-04-19 20:21:00,
2013-04-19 13:26:00,51.0,50.5,30.06,WSW,257,1.0,1.0,98,0.04,,,0.64,220,WeatherCatV1.14B232,2013-04-19 20:26:00,
2013-04-19 13:31:00,51.0,50.5,30.06,WSW,248,0.0,0.0,98,0.00,,,0.64,209,WeatherCatV1.14B232,2013-04-19 20:31:00,
2013-04-19 13:36:00,51.1,50.6,30.06,West,260,2.0,4.0,98,0.00,,,0.64,113,WeatherCatV1.14B232,2013-04-19 20:36:00,
2013-04-19 13:41:00,51.0,50.5,30.06,West,260,0.0,1.0,98,0.00,,,0.64,104,WeatherCatV1.14B232,2013-04-19 20:41:00,
2013-04-19 13:46:00,51.0,50.5,30.06,WSW,248,0.0,1.0,98,0.00,,,0.64,83,WeatherCatV1.14B232,2013-04-19 20:46:00,
2013-04-19 13:51:00,51.0,50.5,30.06,WSW,248,0.0,1.0,98,0.00,,,0.65,132,WeatherCatV1.14B232,2013-04-19 20:51:00,
2013-04-19 13:56:00,51.0,50.5,30.06,WSW,248,0.0,0.0,98,0.00,,,0.65,181,WeatherCatV1.14B232,2013-04-19 20:56:00,
2013-04-19 14:01:00,51.1,50.6,30.06,WSW,248,0.0,0.0,98,0.04,,,0.66,142,WeatherCatV1.14B232,2013-04-19 21:01:00,
2013-04-19 14:06:00,51.3,50.8,30.06,WSW,248,1.0,3.0,98,0.04,,,0.66,200,WeatherCatV1.14B232,2013-04-19 21:06:00,
2013-04-19 14:11:00,51.3,50.8,30.06,WSW,238,0.0,2.0,98,0.05,,,0.67,128,WeatherCatV1.14B232,2013-04-19 21:11:00,
2013-04-19 14:16:00,51.4,50.9,30.06,WSW,238,0.0,0.0,98,0.05,,,0.67,229,WeatherCatV1.14B232,2013-04-19 21:16:00,
2013-04-19 14:21:00,51.7,51.2,30.06,WSW,238,0.0,0.0,98,0.05,,,0.67,232,WeatherCatV1.14B232,2013-04-19 21:21:00,
2013-04-19 14:26:00,52.0,51.5,30.06,WSW,238,2.0,3.0,98,0.04,,,0.67,197,WeatherCatV1.14B232,2013-04-19 21:26:00,
2013-04-19 14:31:00,52.2,51.7,30.06,WSW,238,0.0,0.0,98,0.00,,,0.67,199,WeatherCatV1.14B232,2013-04-19 21:31:00,
2013-04-19 14:36:00,52.3,51.8,30.06,West,262,0.0,2.0,98,0.00,,,0.67,246,WeatherCatV1.14B232,2013-04-19 21:36:00,
2013-04-19 14:41:00,52.6,52.0,30.06,West,262,0.0,2.0,98,0.00,,,0.67,199,WeatherCatV1.14B232,2013-04-19 21:41:00,
2013-04-19 14:46:00,52.6,52.0,30.06,WNW,292,0.0,2.0,98,0.00,,,0.67,243,WeatherCatV1.14B232,2013-04-19 21:46:00,
2013-04-19 14:51:00,52.8,52.2,30.06,WNW,302,0.0,4.0,98,0.00,,,0.67,250,WeatherCatV1.14B232,2013-04-19 21:51:00,
2013-04-19 14:56:00,52.8,52.2,30.06,WSW,248,0.0,2.0,98,0.00,,,0.67,204,WeatherCatV1.14B232,2013-04-19 21:56:00,
2013-04-19 15:01:00,52.8,52.2,30.07,WSW,248,0.0,1.0,98,0.00,,,0.67,179,WeatherCatV1.14B232,2013-04-19 22:01:00,
2013-04-19 15:06:00,52.8,52.2,30.07,WSW,243,0.0,0.0,98,0.00,,,0.67,209,WeatherCatV1.14B232,2013-04-19 22:06:00,
2013-04-19 15:11:00,52.9,52.3,30.07,WSW,243,0.0,0.0,98,0.00,,,0.67,190,WeatherCatV1.14B232,2013-04-19 22:11:00,
2013-04-19 15:16:00,53.1,52.5,30.07,WSW,243,0.0,1.0,98,0.00,,,0.67,193,WeatherCatV1.14B232,2013-04-19 22:16:00,
2013-04-19 15:21:00,53.2,52.6,30.07,WSW,243,0.0,0.0,98,0.00,,,0.67,216,WeatherCatV1.14B232,2013-04-19 22:21:00,
2013-04-19 15:26:00,53.3,52.7,30.07,WSW,243,0.0,0.0,98,0.00,,,0.67,128,WeatherCatV1.14B232,2013-04-19 22:26:00,
2013-04-19 15:31:00,53.3,52.7,30.07,WSW,243,0.0,0.0,98,0.00,,,0.67,98,WeatherCatV1.14B232,2013-04-19 22:31:00,
2013-04-19 15:36:00,53.2,52.6,30.07,WSW,243,2.0,2.0,98,0.00,,,0.67,76,WeatherCatV1.14B232,2013-04-19 22:36:00,
2013-04-19 15:41:00,53.1,52.3,30.07,WSW,244,0.0,0.0,97,0.00,,,0.67,90,WeatherCatV1.14B232,2013-04-19 22:41:00,
2013-04-19 15:46:00,52.8,52.0,30.07,West,275,0.0,3.0,97,0.00,,,0.67,67,WeatherCatV1.14B232,2013-04-19 22:46:00,
2013-04-19 15:51:00,52.5,51.7,30.07,NW,318,0.0,1.0,97,0.00,,,0.67,121,WeatherCatV1.14B232,2013-04-19 22:51:00,
2013-04-19 15:56:00,52.3,51.5,30.07,NW,318,0.0,0.0,97,0.00,,,0.67,141,WeatherCatV1.14B232,2013-04-19 22:56:00,
2013-04-19 16:01:00,52.3,51.5,30.07,NW,306,0.0,2.0,97,0.00,,,0.67,84,WeatherCatV1.14B232,2013-04-19 23:01:00,
2013-04-19 16:06:00,52.2,51.1,30.07,West,266,0.0,2.0,96,0.00,,,0.67,56,WeatherCatV1.14B232,2013-04-19 23:06:00,
2013-04-19 16:11:00,51.9,50.8,30.07,NNW,329,2.0,3.0,96,0.00,,,0.68,37,WeatherCatV1.14B232,2013-04-19 23:11:00,
2013-04-19 16:16:00,51.4,50.3,30.08,NW,323,0.0,2.0,96,0.00,,,0.68,51,WeatherCatV1.14B232,2013-04-19 23:16:00,
2013-04-19 16:21:00,51.1,50.0,30.08,NNW,334,0.0,2.0,96,0.00,,,0.68,63,WeatherCatV1.14B232,2013-04-19 23:21:00,
2013-04-19 16:26:00,51.0,49.9,30.08,WNW,292,0.0,2.0,96,0.04,,,0.69,77,WeatherCatV1.14B232,2013-04-19 23:26:00,
2013-04-19 16:31:00,50.8,49.7,30.08,NW,322,1.0,2.0,96,0.04,,,0.69,111,WeatherCatV1.14B232,2013-04-19 23:31:00,
2013-04-19 16:36:00,50.8,49.7,30.08,NW,325,1.0,1.0,96,0.08,,,0.70,56,WeatherCatV1.14B232,2013-04-19 23:36:00,
2013-04-19 16:41:00,50.8,49.7,30.08,NW,325,0.0,2.0,96,0.07,,,0.71,46,WeatherCatV1.14B232,2013-04-19 23:41:00,
2013-04-19 16:46:00,50.8,49.7,30.08,NNW,328,5.0,5.0,96,0.07,,,0.71,81,WeatherCatV1.14B232,2013-04-19 23:46:00,
2013-04-19 16:51:00,50.5,49.4,30.08,NW,305,0.0,2.0,96,0.06,,,0.71,79,WeatherCatV1.14B232,2013-04-19 23:51:00,
2013-04-19 16:56:00,50.4,49.3,30.08,West,280,0.0,0.0,96,0.04,,,0.72,76,WeatherCatV1.14B232,2013-04-19 23:56:00,
2013-04-19 17:01:00,50.4,49.3,30.09,West,280,0.0,2.0,96,0.16,,,0.73,83,WeatherCatV1.14B232,2013-04-20 00:01:00,
2013-04-19 17:06:00,50.4,49.3,30.09,West,277,0.0,3.0,96,0.14,,,0.74,49,WeatherCatV1.14B232,2013-04-20 00:06:00,
2013-04-19 17:11:00,50.4,49.3,30.09,NE,34,3.0,4.0,96,0.06,,,0.74,46,WeatherCatV1.14B232,2013-04-20 00:11:00,
2013-04-19 17:16:00,50.2,49.1,30.09,WSW,246,0.0,3.0,96,0.04,,,0.74,42,WeatherCatV1.14B232,2013-04-20 00:16:00,
2013-04-19 17:21:00,50.1,49.0,30.09,WNW,290,0.0,1.0,96,0.00,,,0.74,39,WeatherCatV1.14B232,2013-04-20 00:21:00,
2013-04-19 17:26:00,50.1,49.0,30.09,WNW,292,1.0,2.0,96,0.00,,,0.74,25,WeatherCatV1.14B232,2013-04-20 00:26:00,
2013-04-19 17:31:00,49.9,48.8,30.09,WNW,283,0.0,2.0,96,0.00,,,0.75,40,WeatherCatV1.14B232,2013-04-20 00:31:00,
2013-04-19 17:36:00,49.8,48.7,30.09,NW,304,0.0,3.0,96,0.00,,,0.75,54,WeatherCatV1.14B232,2013-04-20 00:36:00,
2013-04-19 17:41:00,49.6,48.5,30.09,NW,304,0.0,2.0,96,0.00,,,0.75,37,WeatherCatV1.14B232,2013-04-20 00:41:00,
2013-04-19 17:46:00,49.6,48.5,30.10,NW,312,2.0,2.0,96,0.00,,,0.75,33,WeatherCatV1.14B232,2013-04-20 00:46:00,
2013-04-19 17:51:00,49.5,48.4,30.10,NW,312,0.0,1.0,96,0.00,,,0.75,18,WeatherCatV1.14B232,2013-04-20 00:51:00,
2013-04-19 17:56:00,49.4,48.3,30.10,West,272,0.0,1.0,96,0.00,,,0.75,21,WeatherCatV1.14B232,2013-04-20 00:56:00,
2013-04-19 18:01:00,49.4,48.3,30.10,NW,319,3.0,3.0,96,0.00,,,0.75,19,WeatherCatV1.14B232,2013-04-20 01:01:00,
2013-04-19 18:07:00,49.2,48.1,30.10,WNW,297,0.0,3.0,96,0.00,,,0.75,14,WeatherCatV1.14B232,2013-04-20 01:07:00,
2013-04-19 18:12:00,49.2,48.1,30.10,WNW,297,1.0,2.0,96,0.00,,,0.75,16,WeatherCatV1.14B232,2013-04-20 01:12:00,
2013-04-19 18:17:00,49.2,48.1,30.10,WNW,297,0.0,2.0,96,0.00,,,0.75,21,WeatherCatV1.14B232,2013-04-20 01:17:00,
2013-04-19 18:22:00,49.1,48.0,30.10,NNW,327,2.0,3.0,96,0.00,,,0.76,18,WeatherCatV1.14B232,2013-04-20 01:22:00,
2013-04-19 18:27:00,49.1,48.0,30.10,West,261,1.0,4.0,96,0.00,,,0.76,21,WeatherCatV1.14B232,2013-04-20 01:27:00,
2013-04-19 18:32:00,48.9,47.8,30.10,WNW,300,0.0,0.0,96,0.06,,,0.77,26,WeatherCatV1.14B232,2013-04-20 01:32:00,
2013-04-19 18:37:00,48.9,47.8,30.10,NNW,334,0.0,4.0,96,0.06,,,0.77,30,WeatherCatV1.14B232,2013-04-20 01:37:00,
2013-04-19 18:42:00,48.9,47.8,30.10,NNW,334,0.0,1.0,96,0.06,,,0.77,30,WeatherCatV1.14B232,2013-04-20 01:42:00,
2013-04-19 18:47:00,48.8,47.7,30.10,NW,323,2.0,2.0,96,0.04,,,0.77,26,WeatherCatV1.14B232,2013-04-20 01:47:00,
2013-04-19 18:52:00,48.8,47.7,30.10,NW,323,0.0,0.0,96,0.00,,,0.77,21,WeatherCatV1.14B232,2013-04-20 01:52:00,
2013-04-19 18:57:00,48.8,47.7,30.10,NW,323,0.0,0.0,96,0.00,,,0.77,14,WeatherCatV1.14B232,2013-04-20 01:57:00,
2013-04-19 19:02:00,48.8,47.7,30.10,NNW,337,0.0,2.0,96,0.00,,,0.77,16,WeatherCatV1.14B232,2013-04-20 02:02:00,
2013-04-19 19:07:00,48.8,47.7,30.10,NNW,340,0.0,2.0,96,0.00,,,0.77,16,WeatherCatV1.14B232,2013-04-20 02:07:00,
2013-04-19 19:12:00,48.6,47.5,30.10,NNW,327,2.0,6.0,96,0.00,,,0.77,19,WeatherCatV1.14B232,2013-04-20 02:12:00,
2013-04-19 19:17:00,48.6,47.5,30.10,NW,311,0.0,6.0,96,0.00,,,0.77,28,WeatherCatV1.14B232,2013-04-20 02:17:00,
2013-04-19 19:22:00,48.5,47.4,30.10,NW,321,2.0,5.0,96,0.00,,,0.78,26,WeatherCatV1.14B232,2013-04-20 02:22:00,
2013-04-19 19:27:00,48.5,47.4,30.10,NW,325,0.0,2.0,96,0.00,,,0.78,16,WeatherCatV1.14B232,2013-04-20 02:27:00,
2013-04-19 19:32:00,48.5,47.4,30.10,NW,325,0.0,0.0,96,0.00,,,0.78,7,WeatherCatV1.14B232,2013-04-20 02:32:00,
2013-04-19 19:37:00,48.3,47.2,30.10,NNW,344,1.0,4.0,96,0.00,,,0.78,9,WeatherCatV1.14B232,2013-04-20 02:37:00,
2013-04-19 19:42:00,48.3,47.2,30.10,NNW,344,0.0,1.0,96,0.00,,,0.78,9,WeatherCatV1.14B232,2013-04-20 02:42:00,
2013-04-19 19:47:00,48.3,47.2,30.10,NNW,344,0.0,0.0,96,0.00,,,0.78,7,WeatherCatV1.14B232,2013-04-20 02:47:00,
2013-04-19 19:52:00,48.3,47.2,30.10,West,269,0.0,4.0,96,0.00,,,0.78,5,WeatherCatV1.14B232,2013-04-20 02:52:00,
2013-04-19 19:57:00,48.2,47.1,30.10,WNW,293,0.0,0.0,96,0.00,,,0.78,0,WeatherCatV1.14B232,2013-04-20 02:57:00,
2013-04-19 20:02:00,48.2,47.1,30.10,WNW,293,0.0,0.0,96,0.00,,,0.78,0,WeatherCatV1.14B232,2013-04-20 03:02:00,
2013-04-19 20:07:00,48.2,47.1,30.10,WNW,297,2.0,2.0,96,0.00,,,0.78,0,WeatherCatV1.14B232,2013-04-20 03:07:00,
2013-04-19 20:12:00,48.2,47.1,30.10,NW,319,1.0,1.0,96,0.00,,,0.78,0,WeatherCatV1.14B232,2013-04-20 03:12:00,
2013-04-19 20:17:00,48.0,46.9,30.11,NW,319,0.0,1.0,96,0.00,,,0.78,0,WeatherCatV1.14B232,2013-04-20 03:17:00,
2013-04-19 20:22:00,48.0,46.9,30.11,NW,319,1.0,1.0,96,0.00,,,0.78,0,WeatherCatV1.14B232,2013-04-20 03:22:00,
2013-04-19 20:27:00,48.0,46.9,30.11,NW,319,0.0,1.0,96,0.00,,,0.78,0,WeatherCatV1.14B232,2013-04-20 03:27:00,
2013-04-19 20:32:00,47.9,46.8,30.12,NW,319,0.0,0.0,96,0.00,,,0.78,0,WeatherCatV1.14B232,2013-04-20 03:32:00,
2013-04-19 20:37:00,47.9,46.8,30.12,NW,319,0.0,0.0,96,0.00,,,0.78,0,WeatherCatV1.14B232,2013-04-20 03:37:00,
2013-04-19 20:42:00,47.9,46.8,30.12,NW,319,0.0,0.0,96,0.00,,,0.78,0,WeatherCatV1.14B232,2013-04-20 03:42:00,
2013-04-19 20:47:00,47.7,46.6,30.12,NW,319,0.0,0.0,96,0.00,,,0.78,0,WeatherCatV1.14B232,2013-04-20 03:47:00,
2013-04-19 20:52:00,47.7,46.6,30.12,NW,319,0.0,0.0,96,0.00,,,0.78,0,WeatherCatV1.14B232,2013-04-20 03:52:00,
2013-04-19 20:57:00,47.7,46.6,30.12,NW,319,0.0,1.0,96,0.00,,,0.78,0,WeatherCatV1.14B232,2013-04-20 03:57:00,
2013-04-19 21:01:00,47.6,46.5,30.13,NW,319,0.0,4.0,96,0.00,,,0.78,0,WeatherCatV1.14B232,2013-04-20 04:01:00,
2013-04-19 21:06:00,47.6,46.5,30.13,NW,315,1.0,6.0,96,0.00,,,0.78,0,WeatherCatV1.14B232,2013-04-20 04:06:00,
2013-04-19 21:11:00,47.4,46.3,30.13,NW,316,0.0,2.0,96,0.00,,,0.78,0,WeatherCatV1.14B232,2013-04-20 04:11:00,
2013-04-19 21:16:00,47.3,46.2,30.13,NW,316,0.0,0.0,96,0.00,,,0.78,0,WeatherCatV1.14B232,2013-04-20 04:16:00,
2013-04-19 21:21:00,47.3,46.2,30.13,WNW,292,0.0,2.0,96,0.00,,,0.78,0,WeatherCatV1.14B232,2013-04-20 04:21:00,
2013-04-19 21:26:00,47.3,46.2,30.13,NW,305,0.0,1.0,96,0.00,,,0.78,0,WeatherCatV1.14B232,2013-04-20 04:26:00,
2013-04-19 21:31:00,47.1,46.0,30.13,WNW,297,0.0,1.0,96,0.00,,,0.78,0,WeatherCatV1.14B232,2013-04-20 04:31:00,
2013-04-19 21:36:00,47.1,46.0,30.13,WNW,297,0.0,0.0,96,0.00,,,0.78,0,WeatherCatV1.14B232,2013-04-20 04:36:00,
2013-04-19 21:41:00,47.0,45.9,30.13,WNW,297,0.0,0.0,96,0.00,,,0.78,0,WeatherCatV1.14B232,2013-04-20 04:41:00,
2013-04-19 21:46:00,47.0,45.9,30.14,WNW,296,0.0,0.0,96,0.00,,,0.78,0,WeatherCatV1.14B232,2013-04-20 04:46:00,
2013-04-19 21:51:00,47.0,45.9,30.14,WNW,297,0.0,0.0,96,0.00,,,0.78,0,WeatherCatV1.14B232,2013-04-20 04:51:00,
2013-04-19 21:56:00,47.0,45.9,30.14,WNW,297,0.0,0.0,96,0.00,,,0.78,0,WeatherCatV1.14B232,2013-04-20 04:56:00,
2013-04-19 22:01:00,47.0,45.9,30.13,WNW,297,0.0,0.0,96,0.00,,,0.78,0,WeatherCatV1.14B232,2013-04-20 05:01:00,
2013-04-19 22:06:00,47.0,45.9,30.13,WNW,297,0.0,0.0,96,0.00,,,0.78,0,WeatherCatV1.14B232,2013-04-20 05:06:00,
2013-04-19 22:11:00,47.0,45.9,30.13,WNW,297,0.0,0.0,96,0.00,,,0.79,0,WeatherCatV1.14B232,2013-04-20 05:11:00,
2013-04-19 22:16:00,47.0,45.9,30.14,WNW,300,0.0,0.0,96,0.00,,,0.79,0,WeatherCatV1.14B232,2013-04-20 05:16:00,
2013-04-19 22:21:00,47.0,45.9,30.14,WNW,300,1.0,2.0,96,0.00,,,0.79,0,WeatherCatV1.14B232,2013-04-20 05:21:00,
2013-04-19 22:26:00,47.0,45.9,30.14,WNW,300,0.0,0.0,96,0.00,,,0.79,0,WeatherCatV1.14B232,2013-04-20 05:26:00,
2013-04-19 22:31:00,46.8,45.7,30.14,WNW,300,0.0,0.0,96,0.00,,,0.79,0,WeatherCatV1.14B232,2013-04-20 05:31:00,
2013-04-19 22:36:00,46.8,45.7,30.14,WNW,300,0.0,0.0,96,0.00,,,0.79,0,WeatherCatV1.14B232,2013-04-20 05:36:00,
2013-04-19 22:41:00,46.8,45.7,30.14,WNW,300,0.0,1.0,96,0.00,,,0.79,0,WeatherCatV1.14B232,2013-04-20 05:41:00,
2013-04-19 22:46:00,46.8,45.7,30.14,NW,321,0.0,5.0,96,0.00,,,0.79,0,WeatherCatV1.14B232,2013-04-20 05:46:00,
2013-04-19 22:51:00,46.8,45.7,30.14,NNW,327,0.0,1.0,96,0.00,,,0.79,0,WeatherCatV1.14B232,2013-04-20 05:51:00,
2013-04-19 22:56:00,46.7,45.6,30.14,NNW,327,0.0,0.0,96,0.00,,,0.79,0,WeatherCatV1.14B232,2013-04-20 05:56:00,
2013-04-19 23:01:00,46.7,45.6,30.15,NNW,327,0.0,0.0,96,0.00,,,0.79,0,WeatherCatV1.14B232,2013-04-20 06:01:00,
2013-04-19 23:06:00,46.7,45.6,30.15,NNW,327,0.0,0.0,96,0.00,,,0.79,0,WeatherCatV1.14B232,2013-04-20 06:06:00,
2013-04-19 23:11:00,46.7,45.6,30.15,NNW,327,0.0,0.0,96,0.00,,,0.79,0,WeatherCatV1.14B232,2013-04-20 06:11:00,
2013-04-19 23:16:00,46.7,45.6,30.15,NNW,327,0.0,0.0,96,0.00,,,0.79,0,WeatherCatV1.14B232,2013-04-20 06:16:00,
2013-04-19 23:21:00,46.7,45.6,30.15,NNW,327,0.0,0.0,96,0.00,,,0.79,0,WeatherCatV1.14B232,2013-04-20 06:21:00,
2013-04-19 23:26:00,46.7,45.6,30.15,NNW,327,0.0,0.0,96,0.00,,,0.79,0,WeatherCatV1.14B232,2013-04-20 06:26:00,
2013-04-19 23:31:00,46.7,45.6,30.15,NNW,327,0.0,0.0,96,0.00,,,0.79,0,WeatherCatV1.14B232,2013-04-20 06:31:00,
2013-04-19 23:36:00,46.7,45.6,30.15,NNW,327,0.0,0.0,96,0.00,,,0.79,0,WeatherCatV1.14B232,2013-04-20 06:36:00,
2013-04-19 23:41:00,46.8,45.7,30.15,NNW,327,0.0,0.0,96,0.00,,,0.79,0,WeatherCatV1.14B232,2013-04-20 06:41:00,
2013-04-19 23:46:00,46.8,45.7,30.15,NNW,327,0.0,0.0,96,0.00,,,0.79,0,WeatherCatV1.14B232,2013-04-20 06:46:00,
2013-04-19 23:51:00,46.8,45.7,30.15,NNW,327,0.0,0.0,96,0.00,,,0.79,0,WeatherCatV1.14B232,2013-04-20 06:51:00,
2013-04-19 23:56:00,46.8,45.7,30.15,NNW,327,0.0,0.0,96,0.00,,,0.79,0,WeatherCatV1.14B232,2013-04-20 06:56:00,